Weather History for KMKJ - January, 2013

Change the Weather History Date:

Thursday, January 10, 2013

  Actual Average (KGEV) Record (KGEV)
Temperature  
Mean Temperature 51 °F -  
Max Temperature 62 °F 38 °F 66 °F (1974)
Min Temperature 40 °F 19 °F -15 °F (1970)
Degree Days  
Heating Degree Days 14    
Growing Degree Days 1 (Base 50)    
Moisture  
Dew Point 42 °F    
Average Humidity 74    
Maximum Humidity 100    
Minimum Humidity 43    
Precipitation  
Precipitation 0.00 in - - ()
Sea Level Pressure  
Sea Level Pressure 30.47 in    
Wind  
Wind Speed 5 mph (ENE)    
Max Wind Speed 18 mph    
Max Gust Speed 23 mph    
Visibility 8 miles    
Events Fog    
Averages and records for this station are not official NWS values.
T = Trace of Precipitation, MM = Missing Value Source: NWS Daily Summary

Daily Weather History Graph

Daily Weather History Graph

Search for Another Location

Airport or City:

Trip Planner

Search our weather history database for the weather conditions in past years. The results will help you decide how hot, cold, wet, or windy it might be!

Date:

Astronomy

Jan. 10, 2013 Rise Set
Actual Time 7:38 AM EST 5:27 PM EST
Civil Twilight 7:09 AM EST 5:56 PM EST
Nautical Twilight 6:37 AM EST 6:28 PM EST
Astronomical Twilight 6:06 AM EST 6:59 PM EST
Moon 6:17 AM EST (1/10) 4:33 PM EST (1/10)
Length of Visible Light 10h 46m
Length of Day
9h 49m
Waning Crescent, 2% of the Moon is Illuminated
Jan 10
Waning Crescent
Jan 11
New
Jan 18
First Quarter
Jan 26
Full
Feb 3
Last Quarter

Hourly Weather History & Observations

Time (EST) Temp. Windchill Dew Point Humidity Pressure Visibility Wind Dir Wind Speed Gust Speed Precip Events Conditions
12:15 AM 50.0 °F - 50.0 °F 100% 30.49 in 7.0 mi WSW 6.9 mph - N/A   Overcast
12:35 AM 49.6 °F - 49.6 °F 100% 30.50 in 5.0 mi WSW 5.8 mph - N/A   Overcast
12:55 AM 50.2 °F - 50.2 °F 100% 30.50 in 10.0 mi WSW 4.6 mph - N/A   Overcast
1:15 AM 49.6 °F - 49.6 °F 100% 30.50 in 7.0 mi WSW 6.9 mph - N/A   Mostly Cloudy
1:35 AM 49.3 °F - 49.3 °F 100% 30.50 in 7.0 mi West 5.8 mph - N/A   Clear
1:55 AM 48.4 °F - 48.4 °F 100% 30.50 in 4.0 mi WNW 3.5 mph - N/A   Clear
3:15 AM 46.8 °F - 46.8 °F 100% 30.50 in 1.5 mi WSW 3.5 mph - N/A   Mist
3:35 AM 45.9 °F 44.6 °F 45.9 °F 100% 30.49 in 0.5 mi West 3.5 mph - N/A Fog Fog
3:55 AM 45.3 °F 44.0 °F 45.3 °F 100% 30.49 in 0.2 mi WSW 3.5 mph - N/A Fog Fog
4:15 AM 44.6 °F - 44.6 °F 100% 30.49 in 0.2 mi Calm Calm - N/A Fog Fog
4:35 AM 43.3 °F - 43.3 °F 100% 30.49 in 0.2 mi Calm Calm - N/A Fog Fog
4:55 AM 43.2 °F - 43.2 °F 100% 30.48 in 0.2 mi Calm Calm - N/A Fog Fog
5:15 AM 42.1 °F - 42.1 °F 100% 30.49 in 0.2 mi Calm Calm - N/A Fog Fog
5:35 AM 41.2 °F - 41.2 °F 100% 30.49 in 0.2 mi Calm Calm - N/A Fog Fog
5:55 AM 41.7 °F - 41.7 °F 100% 30.49 in 0.8 mi Calm Calm - N/A   Overcast
6:15 AM 41.2 °F - 41.2 °F 100% 30.50 in 0.5 mi Calm Calm - N/A Fog Fog
6:35 AM 41.0 °F - 41.0 °F 100% 30.50 in 10.0 mi Calm Calm - N/A   Clear
6:55 AM 41.7 °F - 41.7 °F 100% 30.51 in 10.0 mi Calm Calm - N/A   Clear
7:35 AM 40.6 °F - 40.6 °F 100% 30.53 in 10.0 mi Calm Calm - N/A   Clear
7:55 AM 40.5 °F - 40.5 °F 100% 30.53 in 10.0 mi Calm Calm - N/A   Clear
8:15 AM 40.1 °F - 40.1 °F 100% 30.53 in 10.0 mi Calm Calm - N/A   Clear
8:35 AM 41.0 °F - 41.0 °F 100% 30.54 in 10.0 mi Calm Calm - N/A   Clear
8:55 AM 42.1 °F 40.2 °F 42.1 °F 100% 30.54 in 10.0 mi East 3.5 mph - N/A   Clear
9:15 AM 43.9 °F - 43.9 °F 100% 30.54 in 10.0 mi Calm Calm - N/A   Clear
9:35 AM 45.1 °F 43.7 °F 42.8 °F 91% 30.54 in 10.0 mi East 3.5 mph - N/A   Clear
9:55 AM 45.9 °F 43.6 °F 42.1 °F 87% 30.54 in 10.0 mi ENE 4.6 mph - N/A   Mostly Cloudy
10:15 AM 47.3 °F - 41.2 °F 79% 30.53 in 10.0 mi ENE 5.8 mph - N/A   Mostly Cloudy
10:35 AM 48.6 °F - 41.7 °F 77% 30.53 in 10.0 mi ENE 5.8 mph - N/A   Clear
10:55 AM 50.0 °F - 41.0 °F 71% 30.53 in 10.0 mi ENE 9.2 mph - N/A   Clear
11:15 AM 51.6 °F - 42.4 °F 71% 30.53 in 10.0 mi East 6.9 mph - N/A   Mostly Cloudy
11:35 AM 51.8 °F - 42.1 °F 69% 30.52 in 10.0 mi East 6.9 mph - N/A   Overcast
11:55 AM 52.0 °F - 41.9 °F 69% 30.51 in 10.0 mi ENE 8.1 mph - N/A   Overcast
12:15 PM 53.1 °F - 40.8 °F 63% 30.49 in 10.0 mi East 8.1 mph - N/A   Overcast
12:35 PM 55.2 °F - 39.9 °F 56% 30.49 in 10.0 mi East 6.9 mph - N/A   Overcast
12:55 PM 57.2 °F - 39.7 °F 52% 30.47 in 10.0 mi East 8.1 mph - N/A   Scattered Clouds
1:15 PM 58.3 °F - 37.4 °F 46% 30.45 in 10.0 mi NE 8.1 mph - N/A   Scattered Clouds
1:35 PM 59.0 °F - 36.7 °F 43% 30.45 in 10.0 mi East 8.1 mph - N/A   Clear
1:55 PM 59.4 °F - 39.7 °F 48% 30.44 in 10.0 mi East 8.1 mph - N/A   Mostly Cloudy
2:35 PM 60.3 °F - 39.7 °F 47% 30.44 in 10.0 mi ENE 8.1 mph - N/A   Overcast
2:55 PM 60.8 °F - 41.2 °F 48% 30.44 in 10.0 mi ENE 5.8 mph - N/A   Overcast
3:15 PM 61.9 °F - 41.4 °F 47% 30.43 in 10.0 mi East 8.1 mph - N/A   Overcast
3:35 PM 62.2 °F - 41.7 °F 47% 30.43 in 10.0 mi ENE 9.2 mph - N/A   Scattered Clouds
3:55 PM 61.9 °F - 45.3 °F 55% 30.43 in 10.0 mi ENE 6.9 mph - N/A   Clear
4:15 PM 61.7 °F - 48.2 °F 61% 30.43 in 10.0 mi East 8.1 mph - N/A   Scattered Clouds
4:35 PM 60.6 °F - 49.1 °F 66% 30.43 in 10.0 mi ENE 6.9 mph - N/A   Clear
4:55 PM 59.2 °F - 48.6 °F 68% 30.43 in 10.0 mi East 5.8 mph - N/A   Clear
5:15 PM 57.9 °F - 48.0 °F 70% 30.44 in 10.0 mi East 6.9 mph - N/A   Clear
5:35 PM 57.2 °F - 46.9 °F 69% 30.44 in 10.0 mi ENE 8.1 mph - N/A   Scattered Clouds
5:55 PM 56.5 °F - 45.9 °F 68% 30.43 in 10.0 mi ENE 6.9 mph - N/A   Clear
6:15 PM 56.3 °F - 45.7 °F 68% 30.43 in 10.0 mi ENE 9.2 mph - N/A   Clear
6:35 PM 54.9 °F - 45.0 °F 69% 30.43 in 10.0 mi ENE 5.8 mph - N/A   Clear
6:55 PM 54.5 °F - 44.2 °F 68% 30.44 in 10.0 mi ENE 6.9 mph - N/A   Mostly Cloudy
7:15 PM 53.1 °F - 43.3 °F 70% 30.43 in 10.0 mi East 8.1 mph - N/A   Mostly Cloudy
7:35 PM 53.1 °F - 41.9 °F 66% 30.43 in 10.0 mi NE 10.4 mph - N/A   Scattered Clouds
7:55 PM 52.3 °F - 40.8 °F 65% 30.43 in 10.0 mi ENE 10.4 mph - N/A   Scattered Clouds
8:15 PM 51.1 °F - 37.6 °F 60% 30.43 in 10.0 mi ENE 9.2 mph - N/A   Clear
8:35 PM 50.9 °F - 35.2 °F 55% 30.43 in 10.0 mi NE 8.1 mph - N/A   Clear
8:55 PM 49.6 °F - 35.4 °F 58% 30.42 in 10.0 mi NE 8.1 mph - N/A   Clear
9:15 PM 49.5 °F - 33.1 °F 53% 30.43 in 10.0 mi NE 6.9 mph - N/A   Clear
9:35 PM 48.9 °F - 32.0 °F 52% 30.42 in 10.0 mi ENE 8.1 mph - N/A   Scattered Clouds
9:55 PM 50.4 °F - 31.8 °F 49% 30.42 in 10.0 mi NE 12.7 mph - N/A   Mostly Cloudy
10:15 PM 50.7 °F - 31.8 °F 48% 30.41 in 10.0 mi NE 12.7 mph - N/A   Overcast
10:35 PM 50.5 °F - 31.3 °F 48% 30.39 in 10.0 mi NNE 18.4 mph 23.0 mph N/A   Overcast
10:55 PM 50.9 °F - 30.2 °F 45% 30.38 in 10.0 mi NE 15.0 mph - N/A   Overcast
11:15 PM 50.4 °F - 31.1 °F 48% 30.38 in 10.0 mi NE 13.8 mph - N/A   Scattered Clouds
11:35 PM 50.9 °F - 32.0 °F 48% 30.37 in 10.0 mi NE 16.1 mph - N/A   Scattered Clouds
11:55 PM 50.9 °F - 32.5 °F 49% 30.36 in 10.0 mi NNE 15.0 mph 23.0 mph N/A   Overcast